星链-31780 (STARLINK-31780 )

导读

STARLINK-31780是美国太空探索技术公司 SpaceX 星链互联网卫星星座的一员,于北京时间2024年4月7日发射入轨,属于星链低轨道卫星组网补网任务星。它将部署在近地轨道,为全球提供高速低延迟互联网接入服务,延续星链项目全球覆盖的部署目标,同时也承担卫星星座迭代补网,维持星座服务容量与网络稳定性的作用。

基本信息
目录编号:
59432
目录名称:
STARLINK-31780
国际标识:
2024-065M
轨道中心:
EARTH
卫星名称:
星链-31780
卫星全名:
星链-31780 (STARLINK-31780 )
卫星状态:
在轨 (已飞行802 天)
发射日期:
2024-04-07 UTC
国别 :
美国 (US)
星等 :
--
轨道信息
数据来源 国际轨道数据 AOE轨道数据
星历时间 2026-06-17T16:04:11+0800
18小时前
查看轨道信息
2026-06-16T06:00:00+0800
2天前
查看轨道信息
半长轴 6840.858km 6840.876km
偏心率 0.0000978 0.0001065
轨道倾角 53.160° 53.159°
近地点辐角 87.089° 83.813°
升交点赤经 178.264° 184.900°
平近点角 273.023° 350.416°
近地点 462.051km 462.01km
远地点 463.391km 463.468km
周期 93.848分钟 93.848分钟
每日圈数 15.343941 15.343883
详细信息
固有亮度:
5
最大亮度:
1.5
卫星平台:
Starlink v2.0 mini
覆盖范围:
全球
运营商:
太空探索技术公司
运营商所在国:
美国
制造商(研发单位):
太空探索技术公司
制造商所在国:
美国
使用方式:
暂无
卫星简介
星链(Starlink)计划是由太空探索技术公司(SpaceX)提出的一个巨型低轨卫星互联网星座项目,计划在2019年至2024年间在太空搭建由约1.2万颗卫星组成的“星链”网络,其中1584颗将部署在地球上空550千米处的近地轨道,并从2020年开始工作。该卫星仍在工作。
2D轨道图
3D轨道图
轨道高度分析图
轨道倾角分析图
轨道综合分析图
查看轨道综合分析图